"Pseudo-MPEC" for P10RuhP

Created 2019 Sep 11 23:07:19 UT using Find_Orb

Click here for an explanation of pseudo-MPECs

 
 Astrometry: 
     P10RuhP  C2019 09 06PtRX_uVIPR]HEImw4m3WUo4q=58R?3*xL`R!!qlS.;SWbPFV=#1gF51
     P10RuhP  C2019 09 06l]*[u\!b@Si+jB-i:J*m(FxNoAstrometry+h\wK@YV4=Pg,VLPSF51
     P10RuhP  C2019 09 06YlvN=ZuyM')C2qredacted;%0vCPVWG-x-=J8J^click*Fhere2!F51
     P10RuhP  C2019 09 06aT-5[jXH;7X7kUAHfi/PhhQMQlNXT]?ifor/!@JlxexplanationF51

Station data:
(F51) Pan-STARRS 1, Haleakala  (N20.707235 W156.255910)  US/Hawaii.
   Observers N. Primak, A. Schultz, S. Watters, J. Thiel, T. Goggia. Measurer
   PS1 Science Consortium. 1.8-m Ritchey-Chrétien + CCD.

Orbital elements:  P10RuhP
   Perigee 2019 Sep 7.417802 +/- 35.2 TT = 10:01:38 (JD 2458733.917802)
Epoch 2019 Sep  6.0 TT = JDT 2458732.5                        AutoNEOCP
M 358.48836106 +/- 19               (J2000 equator)
n   1.06618448 +/- 0.4              Peri.    5.04274 +/- 51
a   0.01369167 +/- 0.32             Node   353.56919 +/- 0.15
e   0.7182841 +/- 0.26              Incl.   61.57883 +/- 5.9
P 337.65d                  H 31.9   G  0.15   U 12.1  SR
q 577023.069 +/- 2.37e+7    Q 0.02352618 +/- 35.4
From 4 observations 2019 Sept. 6 (37.1 min); mean residual 0".27
Residuals in arcseconds: 
190906 F51  .11-  .02-    190906 F51  .15+  .52-    
190906 F51  .11+  .06+    190906 F51  .15-  .47+    

Ephemerides (geocentric):
Date (UTC) HH   RA              Dec         delta   r     elong  mag " sig PA
---- -- -- --  -------------   -----------  ------ ------ -----  --- ---- ---
2019 09 11 23  01 14 53.806   +37 57 04.16  641442 1.0094 129.7 22.0  60d 179
2019 09 12 00  01 15 52.105   +38 12 00.08  642509 1.0094 129.4 22.0  60d 179
2019 09 12 01  01 16 50.605   +38 26 51.16  643583 1.0094 129.1 22.0  60d 179
2019 09 12 02  01 17 49.308   +38 41 37.37  644664 1.0093 128.8 22.0  60d 179
2019 09 12 03  01 18 48.214   +38 56 18.71  645751 1.0093 128.5 22.0  60d 179
2019 09 12 04  01 19 47.325   +39 10 55.17  646845 1.0093 128.3 22.0  59d 179
2019 09 12 05  01 20 46.641   +39 25 26.73  647944 1.0093 128.0 22.0  59d 179
2019 09 12 06  01 21 46.164   +39 39 53.38  649050 1.0092 127.7 22.0  59d 179
2019 09 12 07  01 22 45.896   +39 54 15.12  650162 1.0092 127.4 22.1  59d 179
2019 09 12 08  01 23 45.836   +40 08 31.92  651280 1.0092 127.2 22.1  59d 179
2019 09 12 09  01 24 45.986   +40 22 43.79  652405 1.0092 126.9 22.1  59d 179
2019 09 12 10  01 25 46.348   +40 36 50.71  653535 1.0091 126.6 22.1  58d 179
2019 09 12 11  01 26 46.922   +40 50 52.68  654671 1.0091 126.4 22.1  58d   0
2019 09 12 12  01 27 47.709   +41 04 49.68  655813 1.0091 126.1 22.1  58d   0
2019 09 12 13  01 28 48.710   +41 18 41.71  656961 1.0091 125.8 22.1  58d   0
2019 09 12 14  01 29 49.926   +41 32 28.75  658114 1.0091 125.6 22.1  58d   0
2019 09 12 15  01 30 51.358   +41 46 10.81  659273 1.0090 125.3 22.1  57d   0
2019 09 12 16  01 31 53.008   +41 59 47.87  660438 1.0090 125.0 22.2  57d   0
2019 09 12 17  01 32 54.875   +42 13 19.93  661609 1.0090 124.8 22.2  57d   0
2019 09 12 18  01 33 56.961   +42 26 46.99  662785 1.0090 124.5 22.2  57d   0
2019 09 12 19  01 34 59.266   +42 40 09.02  663966 1.0089 124.2 22.2  57d   0
2019 09 12 20  01 36 01.792   +42 53 26.04  665153 1.0089 124.0 22.2  57d   0
2019 09 12 21  01 37 04.539   +43 06 38.03  666345 1.0089 123.7 22.2  56d   0
2019 09 12 22  01 38 07.508   +43 19 44.99  667542 1.0089 123.5 22.2  56d   0
2019 09 12 23  01 39 10.700   +43 32 46.91  668745 1.0088 123.2 22.2  56d   0
2019 09 13 00  01 40 14.116   +43 45 43.80  669952 1.0088 122.9 22.2  56d   0
2019 09 13 01  01 41 17.755   +43 58 35.64  671165 1.0088 122.7 22.3  56d   1
2019 09 13 02  01 42 21.619   +44 11 22.43  672383 1.0088 122.4 22.3  55d   1
2019 09 13 03  01 43 25.709   +44 24 04.16  673606 1.0088 122.2 22.3  55d   1
2019 09 13 04  01 44 30.025   +44 36 40.85  674834 1.0087 121.9 22.3  55d   1
2019 09 13 05  01 45 34.567   +44 49 12.47  676066 1.0087 121.7 22.3  55d   1
2019 09 13 06  01 46 39.336   +45 01 39.03  677304 1.0087 121.4 22.3  55d   1
2019 09 13 07  01 47 44.334   +45 14 00.53  678546 1.0087 121.2 22.3  54d   1
2019 09 13 08  01 48 49.559   +45 26 16.97  679793 1.0086 120.9 22.3  54d   1
2019 09 13 09  01 49 55.013   +45 38 28.33  681045 1.0086 120.7 22.3  54d   1
2019 09 13 10  01 51 00.696   +45 50 34.63  682301 1.0086 120.4 22.4  54d   1
2019 09 13 11  01 52 06.608   +46 02 35.86  683562 1.0086 120.2 22.4  54d   1
2019 09 13 12  01 53 12.751   +46 14 32.01  684827 1.0085 120.0 22.4  53d   1
2019 09 13 13  01 54 19.123   +46 26 23.09  686097 1.0085 119.7 22.4  53d   1
2019 09 13 14  01 55 25.725   +46 38 09.10  687371 1.0085 119.5 22.4  53d   1
2019 09 13 15  01 56 32.559   +46 49 50.04  688649 1.0085 119.2 22.4  53d   1
2019 09 13 16  01 57 39.623   +47 01 25.90  689932 1.0084 119.0 22.4  53d   1
2019 09 13 17  01 58 46.918   +47 12 56.69  691219 1.0084 118.8 22.4  52d   1
2019 09 13 18  01 59 54.444   +47 24 22.40  692510 1.0084 118.5 22.4  52d   1
2019 09 13 19  02 01 02.201   +47 35 43.04  693805 1.0084 118.3 22.5  52d   2
2019 09 13 20  02 02 10.189   +47 46 58.62  695105 1.0083 118.0 22.5  52d   2
2019 09 13 21  02 03 18.409   +47 58 09.12  696408 1.0083 117.8 22.5  52d   2
2019 09 13 22  02 04 26.860   +48 09 14.55  697715 1.0083 117.6 22.5  52d   2